Theta_e
333 329 332 334 335 336 338 339 340 340 341 341 341 342 344 346 346 347 347 345 347 348 348 350 350 350 350 349 349 349 349 350 351 351 350 351 352 351 350 350 351 351 351 351 353 352 354 356 354 356 359 360 361 362 363 363 361 362 358 358 358 359 360
332 330 332 334 335 337 339 340 340 341 341 341 341 341 344 346 346 347 347 346 347 348 348 349 351 350 350 350 349 349 350 349 352 355 352 353 355 353 353 352 352 353 353 351 353 353 355 355 354 356 358 361 361 363 365 365 364 361 359 358 358 357 360
332 330 332 334 334 336 339 340 341 341 341 342 342 342 344 345 347 347 348 347 346 349 348 349 350 350 350 350 348 349 351 349 352 353 350 351 352 353 353 353 353 353 354 353 353 354 356 355 353 355 357 358 360 362 364 364 364 363 360 359 360 360 356
331 331 332 334 335 337 339 340 341 342 342 342 342 342 345 346 347 348 349 349 347 350 347 348 350 350 349 350 348 348 350 349 352 352 351 351 352 352 352 351 353 353 353 352 353 355 357 355 355 355 364 358 358 361 363 363 363 362 361 360 358 360 359
332 333 332 333 335 336 338 339 340 341 342 342 343 343 345 347 348 348 350 350 349 350 349 349 350 351 350 351 349 349 350 349 350 351 351 350 353 351 351 351 351 352 353 353 353 355 355 355 355 354 361 356 357 359 362 362 361 360 360 361 358 359 358
332 332 332 332 335 338 338 339 340 341 341 341 342 343 344 347 348 348 350 351 350 351 351 350 350 351 349 350 350 349 350 350 350 351 349 350 349 348 349 351 351 351 352 352 353 353 353 354 355 354 358 357 356 357 359 360 359 359 358 360 358 358 359
333 333 332 333 333 334 336 338 340 341 342 343 343 344 345 346 347 348 349 351 350 350 351 350 350 351 350 350 349 349 349 349 350 350 349 349 348 346 347 348 351 350 350 351 351 352 351 352 355 355 355 357 357 357 356 357 357 357 357 358 358 357 357
332 333 334 333 333 337 337 337 339 341 342 342 341 342 344 346 347 348 348 351 350 350 351 350 350 350 350 350 350 348 349 349 350 350 350 348 347 347 346 346 348 348 348 348 350 350 350 350 354 355 355 354 355 355 355 355 355 356 355 356 357 358 359
337 333 334 335 335 336 336 337 338 339 340 340 340 342 344 345 346 347 348 350 350 350 350 351 351 351 350 350 349 348 349 350 349 350 349 348 347 347 346 346 346 348 346 346 347 349 350 350 351 354 353 353 353 353 352 353 354 354 354 354 356 357 358
333 335 333 335 336 336 337 337 337 337 338 340 340 341 343 344 346 347 348 350 350 349 350 351 351 351 350 349 349 349 349 349 350 349 349 348 347 346 346 345 346 348 346 345 346 346 349 349 349 350 351 351 352 351 351 350 351 352 353 353 355 356 356
335 337 333 334 335 338 338 338 336 336 337 339 340 341 343 344 345 346 347 349 350 350 351 351 351 350 350 349 349 349 349 349 350 349 348 348 346 345 345 344 344 345 346 344 344 345 346 347 347 347 349 350 350 350 350 350 350 350 351 353 355 356 356
334 335 333 333 335 336 337 339 338 336 337 338 340 342 343 344 345 346 347 348 350 350 350 350 350 350 349 349 348 348 348 349 349 349 348 348 347 345 344 344 344 343 346 345 343 343 345 344 344 345 347 349 349 349 350 350 350 349 350 352 355 355 356
332 333 334 335 336 336 338 339 340 338 337 338 339 342 343 343 344 346 346 346 347 347 346 344 343 345 348 349 348 347 347 348 349 349 349 349 348 347 345 344 343 343 343 345 343 343 343 344 344 346 345 346 347 348 349 351 351 350 350 351 352 352 352
334 332 333 334 334 336 338 339 340 339 338 340 341 342 343 344 345 346 345 344 345 346 345 345 344 344 345 348 348 347 346 347 348 348 349 349 348 347 345 344 343 342 344 345 343 344 343 345 345 345 346 346 346 347 350 351 351 350 351 352 352 351 350
331 331 333 333 334 334 335 337 337 338 340 341 341 341 342 343 344 345 345 345 345 345 345 345 344 344 345 347 347 347 347 346 346 347 348 349 347 346 345 343 342 342 342 344 343 345 344 346 346 345 346 348 348 349 352 352 352 352 351 351 351 350 350
330 330 330 332 333 335 337 339 338 339 339 339 340 341 342 344 344 344 344 344 345 345 345 345 344 343 344 346 347 348 348 349 351 348 346 346 345 345 345 345 343 343 341 342 342 344 346 345 346 347 346 347 347 348 351 351 355 361 365 363 353 351 353
329 329 331 333 334 335 335 337 340 341 339 338 338 338 343 345 345 345 344 344 345 345 346 346 345 345 346 346 347 349 351 354 354 352 348 348 346 345 347 346 346 345 344 344 345 345 348 346 345 346 347 348 347 347 350 354 358 359 345 350 360 358 355
329 330 331 331 332 332 334 336 336 338 339 340 341 340 340 339 344 345 344 345 345 346 348 347 346 346 347 348 348 349 351 354 354 351 350 351 349 349 349 347 346 345 346 347 347 348 349 347 347 347 347 348 348 347 349 353 359 339 342 346 352 364 359
329 330 330 331 331 332 333 335 337 338 340 342 342 342 342 341 339 340 342 345 346 347 347 347 348 348 348 347 348 348 350 353 352 351 351 350 351 351 350 347 346 346 346 346 348 349 347 346 347 347 348 348 346 347 349 352 350 337 342 342 345 354 364
329 330 330 332 333 332 333 335 337 339 340 341 343 344 345 345 343 342 342 343 343 345 346 346 346 347 347 347 347 348 350 352 353 350 350 350 350 350 349 347 347 346 346 347 348 346 346 347 346 347 347 348 346 348 351 352 352 337 339 339 341 346 356
328 329 330 333 333 334 335 335 335 337 340 342 343 343 343 342 343 343 343 344 342 342 340 343 344 345 346 346 347 348 350 352 352 350 349 348 348 349 348 347 347 347 347 347 346 345 346 347 347 347 350 350 350 352 347 344 331 334 337 335 336 341 356
330 331 331 333 333 332 335 336 335 335 337 344 344 342 342 341 343 342 342 344 344 342 341 341 343 343 345 346 346 348 350 352 352 351 349 348 347 347 347 347 346 346 346 346 344 344 346 345 346 349 349 349 350 346 338 332 325 329 330 332 334 342 353
334 334 334 335 336 334 336 338 338 339 340 341 342 341 339 341 343 341 341 341 343 343 343 340 340 341 343 346 346 348 348 351 351 350 348 345 342 342 344 344 345 346 347 344 343 343 344 345 346 347 347 348 348 344 337 333 326 323 325 327 329 340 346
335 336 336 336 336 336 337 337 339 341 339 341 340 339 340 342 341 340 339 339 339 340 339 339 337 338 341 342 345 347 345 344 344 343 343 344 344 345 345 347 347 347 349 343 341 340 340 340 342 343 344 345 344 344 338 330 326 319 320 322 326 341 344
333 334 335 335 334 334 336 337 340 341 342 341 339 340 341 340 339 337 336 337 336 337 335 336 338 340 340 341 342 339 339 341 343 344 344 342 343 346 346 348 347 347 346 343 342 341 341 344 342 342 343 344 342 351 333 331 328 316 315 318 323 335 341
332 333 333 335 336 335 336 337 337 337 338 339 339 341 340 339 338 338 337 335 335 334 334 337 338 341 342 342 342 340 340 342 345 345 342 341 341 342 344 348 347 345 345 343 343 344 343 345 343 341 341 341 335 332 328 325 324 322 312 314 320 327 339
332 333 333 334 335 338 335 335 335 335 335 337 342 341 340 339 337 336 337 336 335 336 336 337 339 342 342 343 343 340 343 345 344 342 341 340 339 343 347 345 343 343 345 345 344 343 343 343 342 338 334 332 329 326 324 324 320 320 312 311 313 318 334
331 332 333 336 337 335 333 334 335 335 336 338 340 343 341 339 337 336 335 335 335 337 339 341 342 342 343 344 343 343 342 342 343 343 343 343 343 342 341 340 341 342 343 343 342 341 340 340 340 332 328 326 326 325 324 329 329 324 318 312 310 311 318
329 329 330 331 332 335 334 333 333 334 335 337 338 340 341 341 339 339 339 337 339 341 342 341 340 342 342 342 342 342 342 343 344 344 344 343 343 341 339 340 341 341 340 337 338 338 338 339 334 327 323 322 322 324 324 325 327 326 325 317 311 310 312
328 330 331 332 333 333 334 333 333 334 335 336 337 338 339 339 338 339 338 338 341 343 344 342 341 341 340 340 339 340 341 343 344 343 343 342 341 340 339 338 337 336 337 338 337 336 336 335 330 325 322 320 320 321 322 323 325 327 326 324 316 312 311
329 329 330 331 332 333 332 332 332 333 334 335 336 336 336 337 336 336 335 338 341 339 338 337 337 336 335 334 335 335 334 335 338 341 341 340 339 337 336 334 333 331 332 334 334 334 334 332 328 325 323 321 319 319 321 322 323 324 326 326 325 318 315
326 327 328 329 329 331 332 332 332 332 332 333 335 335 336 336 336 334 335 338 339 338 336 335 334 333 332 331 331 331 331 330 330 332 335 337 338 338 336 335 334 332 331 331 330 328 326 326 324 323 322 321 321 321 322 324 323 322 322 324 326 326 321
327 327 327 328 329 331 331 331 330 330 331 330 333 334 335 334 335 335 336 336 336 335 335 334 332 332 330 329 329 329 329 327 325 323 324 326 328 330 330 330 330 331 332 330 329 328 327 326 326 324 322 321 321 322 322 321 322 322 322 322 321 322 325
326 328 330 331 331 331 330 330 329 329 330 330 331 332 333 333 333 334 334 335 336 334 333 332 331 329 328 328 328 328 327 327 327 320 315 315 316 317 320 323 324 321 320 321 326 328 327 327 326 324 323 321 321 320 319 320 321 321 319 318 319 321 321
327 328 329 330 331 331 329 329 329 329 329 329 330 330 330 331 332 333 332 332 333 332 331 331 331 329 328 328 328 327 326 323 321 319 315 313 312 309 308 309 314 320 319 317 316 324 327 325 324 324 323 323 321 319 319 321 321 316 308 310 306 311 316
327 328 327 327 327 327 328 328 328 329 329 328 328 328 329 329 330 331 332 332 331 331 330 329 328 327 327 327 327 326 326 324 323 322 321 319 317 315 313 309 300 304 316 317 315 308 309 315 323 324 321 315 311 312 320 322 318 302 296 295 295 296 297
323 324 324 324 322 321 322 324 327 327 326 325 326 326 327 327 328 329 331 331 331 330 328 327 327 327 327 328 327 327 326 325 324 323 322 321 319 318 317 315 312 299 298 304 306 302 297 297 302 310 318 324 313 306 302 301 297 294 294 294 294 294 294
322 322 323 324 322 321 320 321 323 324 324 323 323 323 324 326 326 328 329 329 329 329 328 327 326 325 325 326 327 328 327 325 326 325 323 321 320 318 317 315 314 313 303 298 298 298 295 295 295 296 300 307 311 313 306 300 295 293 293 293 294 293 293
Wind_Speed
11 9 10 12 13 14 14 15 15 14 14 11 12 13 14 13 13 12 12 12 12 11 10 10 10 8 8 7 6 5 5 6 6 7 6 7 6 6 6 6 7 6 5 6 6 6 5 4 4 4 4 4 4 4 4 3 3 3 2 2 1 2 3
10 11 12 12 13 13 14 15 14 13 13 12 11 13 13 14 13 13 13 13 13 13 12 11 11 9 8 8 6 6 6 6 7 5 6 6 5 5 6 6 6 6 5 5 5 5 5 5 4 4 5 4 5 4 4 4 4 3 3 3 3 3 3
9 9 13 13 13 13 14 13 13 13 14 13 11 12 13 14 14 15 14 13 13 12 11 11 11 10 8 8 7 7 6 6 7 7 8 7 6 6 5 5 5 6 5 5 4 5 4 5 5 5 6 6 5 5 4 4 3 3 3 3 3 4 3
10 10 12 14 13 14 15 15 15 13 13 14 13 13 15 14 14 14 14 14 14 12 13 12 11 11 9 9 9 7 7 7 7 8 8 7 8 6 6 5 6 5 5 6 6 5 5 5 5 5 6 5 5 5 4 5 4 4 4 4 4 4 3
4 4 5 9 12 12 13 14 14 14 14 15 15 13 15 14 14 13 13 14 15 14 14 13 11 10 9 8 8 8 8 8 7 7 7 7 7 6 7 7 7 7 7 6 6 6 5 5 5 6 5 5 5 5 5 5 5 5 4 4 5 4 5
8 8 5 7 5 2 11 14 15 15 14 15 15 13 13 15 13 14 14 14 13 12 11 11 11 10 10 9 8 8 6 6 6 6 7 7 7 7 8 8 8 8 7 8 7 7 6 6 6 6 6 6 6 6 5 5 5 5 5 4 5 5 5
6 7 9 8 12 9 7 13 15 15 15 15 14 13 13 14 15 14 13 14 14 14 13 13 12 11 10 9 8 8 9 8 7 8 7 7 7 7 8 7 8 8 8 6 7 7 7 7 7 7 7 6 5 6 6 5 6 5 5 5 5 5 5
1 5 3 9 13 11 8 10 13 14 13 12 12 12 13 13 13 14 13 13 13 13 12 13 12 10 10 9 8 9 9 9 8 8 7 8 7 8 7 7 7 8 7 7 8 8 9 8 7 6 7 6 7 6 6 6 7 7 6 6 6 5 5
4 2 7 7 8 10 10 9 11 13 14 14 14 13 13 13 14 14 14 13 13 13 12 13 12 10 10 10 9 9 9 8 8 8 10 10 8 9 9 8 8 7 8 7 6 7 8 8 8 7 7 7 7 7 7 7 8 7 6 6 6 7 6
4 4 6 7 6 8 7 8 8 10 13 13 13 13 13 12 13 13 13 13 13 14 14 12 11 10 10 10 10 10 10 10 9 10 10 11 9 10 10 9 9 8 8 8 6 8 8 8 9 8 8 8 7 7 7 7 7 7 7 8 8 7 7
6 5 2 1 2 2 5 8 10 11 11 13 13 13 13 13 12 13 13 13 13 13 14 12 10 10 10 11 12 10 11 12 11 11 11 11 9 11 11 10 9 8 9 8 7 7 8 7 8 8 8 9 9 8 7 7 7 7 7 7 7 7 7
6 6 4 7 4 6 10 3 7 9 10 10 12 13 13 13 13 13 13 13 12 12 11 9 8 10 11 11 12 11 11 12 12 12 13 12 10 10 10 10 9 8 8 9 9 8 8 8 7 8 9 10 10 9 9 8 8 8 9 9 8 7 7
4 4 3 1 3 8 3 5 5 10 12 10 11 12 12 12 11 10 11 10 10 11 11 10 9 5 9 12 12 11 11 12 12 12 11 11 10 9 8 9 9 9 9 9 9 9 8 8 9 8 8 8 8 7 6 5 6 6 6 6 6 6 6
7 4 5 3 5 4 1 1 4 7 10 10 11 11 11 12 13 13 13 13 11 11 11 10 11 12 10 10 12 12 11 11 11 11 11 10 10 9 9 8 8 9 10 9 8 9 9 10 10 9 8 7 7 5 5 5 4 4 4 4 5 5 4
8 8 5 5 5 4 9 6 2 9 4 10 12 12 14 10 9 9 9 11 11 11 12 12 10 9 11 11 12 12 12 10 9 9 10 11 10 10 10 9 8 8 9 9 9 8 8 9 10 9 7 4 4 4 4 4 5 4 5 6 5 5 5
8 8 7 7 5 5 3 5 4 3 5 11 2 14 13 12 12 12 13 12 11 12 12 12 11 9 10 12 13 12 11 10 8 9 10 11 11 11 9 8 8 8 8 9 8 6 5 6 6 8 8 7 4 4 4 4 3 4 8 8 6 6 5
7 7 5 6 7 5 7 8 5 4 9 9 13 10 3 13 13 12 13 13 12 12 12 12 12 11 11 12 13 11 10 10 9 9 9 10 12 9 7 7 7 6 6 6 6 7 6 6 7 6 6 7 7 5 4 4 3 5 5 5 9 6 6
9 9 7 6 4 4 4 3 6 6 7 8 3 6 12 10 3 13 14 13 14 13 12 12 11 12 12 11 11 11 12 10 9 9 9 8 9 9 8 7 7 7 7 6 7 6 6 7 7 6 6 6 6 6 5 4 6 8 6 4 6 8 6
6 6 6 2 2 0 1 5 6 2 3 7 8 7 2 4 11 11 2 8 11 10 11 12 11 11 11 11 11 11 11 10 10 9 8 8 9 8 8 7 6 7 7 8 7 6 7 7 6 6 6 6 6 6 5 5 7 10 9 7 5 7 7
4 4 5 3 1 2 2 1 1 5 1 1 2 3 6 8 5 5 9 12 6 4 9 9 9 10 11 11 11 12 11 10 10 9 8 6 6 7 8 7 7 6 5 6 6 7 6 6 6 5 5 6 6 5 4 4 4 7 8 8 8 7 6
3 5 6 5 3 4 4 3 1 2 2 2 0 1 3 3 5 7 3 1 6 9 3 4 8 8 9 10 10 10 10 10 9 8 7 7 7 7 7 7 6 5 5 6 7 7 8 8 7 6 5 5 4 4 4 2 3 1 3 5 7 8 6
3 5 5 5 2 1 3 3 2 2 2 0 2 2 3 4 4 3 5 8 9 6 8 6 5 6 7 8 9 10 10 10 9 8 8 8 7 7 7 6 6 6 4 4 3 2 3 3 4 6 5 4 5 5 4 2 3 3 2 3 5 6 4
2 5 4 5 3 2 2 3 2 1 1 2 4 3 3 4 5 4 4 3 4 7 5 3 4 3 4 5 5 5 5 5 7 6 5 5 8 8 6 4 3 4 3 5 4 4 4 5 4 4 5 5 4 5 5 3 3 3 1 1 2 3 1
6 6 5 4 2 2 3 3 2 0 1 5 5 3 3 3 5 4 4 1 1 3 6 6 6 8 7 3 1 4 6 8 9 9 9 9 9 5 4 5 4 3 3 5 4 3 3 2 2 1 1 2 3 3 4 3 5 6 6 5 3 2 2
6 5 4 3 4 6 5 5 5 5 4 5 6 4 5 6 5 4 2 0 1 3 6 4 2 1 2 5 5 6 7 6 8 8 9 10 9 9 6 3 3 2 3 4 4 4 4 3 2 2 1 1 2 6 6 4 4 6 6 6 6 3 1
6 5 4 4 4 5 5 5 7 8 6 4 5 4 5 5 5 4 3 1 2 2 4 4 3 6 6 2 2 2 2 1 3 6 7 6 4 3 2 3 3 2 2 2 2 3 2 2 3 3 3 4 6 6 5 5 3 3 5 5 4 5 2
6 5 4 4 5 6 5 6 6 6 6 5 2 3 2 3 4 4 5 4 4 3 2 3 3 5 7 7 5 7 6 6 6 7 6 4 1 2 2 2 3 4 3 3 3 3 3 4 4 5 5 5 5 6 5 4 4 4 7 8 7 6 3
5 5 4 4 7 6 5 6 7 7 8 6 6 1 1 1 1 2 2 2 2 2 1 2 3 4 4 8 7 6 5 8 8 7 7 5 5 4 3 2 3 3 3 3 4 4 3 1 4 6 6 5 6 6 6 6 9 4 8 11 10 10 9
5 5 5 4 5 6 6 6 7 8 7 7 7 7 4 4 3 3 3 4 4 3 4 5 5 4 5 6 7 5 5 8 9 6 5 4 5 6 5 3 3 1 0 2 4 3 3 3 6 5 6 6 6 5 5 5 5 9 7 10 12 12 11
4 4 5 6 5 5 6 7 7 8 8 7 7 7 7 6 6 5 6 6 5 6 7 7 6 7 9 8 7 7 8 6 7 7 6 5 5 5 6 5 4 2 3 5 5 4 3 1 6 3 3 7 6 4 4 4 5 8 10 7 11 12 13
2 2 3 5 6 5 5 8 8 8 9 8 9 8 7 6 7 7 6 4 5 7 8 8 9 9 9 9 9 8 8 8 7 7 6 5 5 6 5 4 2 2 2 1 1 3 3 5 7 4 3 3 6 5 3 3 4 5 7 11 11 12 12
3 3 3 3 3 4 4 6 8 9 10 9 7 7 6 7 7 8 4 5 6 6 7 8 9 9 8 8 7 7 8 9 9 9 8 7 5 5 4 4 4 4 5 5 6 6 8 6 5 5 2 4 6 5 3 3 4 5 5 6 9 8 10
3 3 4 5 3 3 5 5 7 8 9 8 6 6 6 7 6 6 6 7 6 7 7 9 9 8 8 8 8 8 8 9 7 7 7 6 6 6 6 6 5 6 6 5 5 6 6 6 6 6 4 5 5 5 5 3 3 3 3 5 5 4 3
4 5 5 4 4 4 5 6 6 7 7 7 5 5 6 6 7 6 6 6 6 7 8 8 8 7 7 8 7 7 7 7 11 10 7 6 6 6 6 6 6 7 6 5 5 5 5 5 4 4 5 6 5 4 4 4 3 4 4 3 4 3 3
3 4 3 3 3 3 4 4 7 8 8 7 6 6 6 6 6 6 7 7 6 6 8 8 9 8 7 7 7 8 6 6 6 6 6 6 6 7 6 6 5 6 6 4 2 3 4 5 5 5 4 5 5 6 4 3 3 2 1 4 4 4 3
3 3 4 4 5 6 6 5 5 6 6 4 5 6 6 5 5 6 6 6 5 6 9 8 7 7 6 6 7 7 6 6 6 6 6 7 7 8 8 11 11 8 5 5 7 10 8 6 4 4 5 7 4 3 2 3 4 6 6 7 7 7 6
4 4 4 5 7 7 7 6 7 7 6 5 4 4 4 4 3 3 3 4 4 6 7 6 6 6 6 7 6 6 6 6 6 6 7 7 7 7 7 6 7 12 12 9 8 9 10 10 10 9 5 5 4 4 7 8 8 7 6 6 6 5 4
4 4 4 4 5 6 6 6 6 6 5 4 4 4 4 5 4 4 4 4 5 5 6 6 7 7 6 6 6 7 6 5 6 6 6 6 5 6 6 6 6 7 11 13 11 11 11 11 11 11 11 9 8 6 3 5 5 5 4 4 4 5 4
Wind_Direction
173 169 172 175 174 174 175 177 175 176 176 166 173 169 166 166 166 168 170 173 169 172 181 177 178 176 183 191 190 183 174 171 167 171 168 171 172 169 170 172 171 177 174 175 189 190 200 198 190 191 186 182 186 183 187 181 191 198 205 217 227 238 248
173 172 171 177 178 177 177 177 175 174 178 170 168 170 168 167 167 169 171 174 173 173 179 180 177 180 184 192 187 186 174 182 168 173 165 169 172 173 171 172 173 181 181 187 182 197 197 204 191 184 188 180 190 185 180 186 190 186 194 210 216 248 248
173 174 171 175 179 179 177 175 177 177 177 177 164 169 172 171 171 170 169 173 173 174 177 182 180 180 183 189 185 189 180 182 169 172 171 174 179 178 177 171 180 183 192 188 184 187 195 194 194 188 184 181 189 193 186 191 198 197 201 203 217 228 242
175 175 175 176 177 177 176 177 179 179 179 179 171 168 171 172 173 171 170 172 172 173 179 185 181 180 182 186 191 187 188 188 177 175 178 177 179 179 175 181 188 190 192 197 194 192 189 184 182 189 188 181 187 197 192 195 199 203 213 207 218 220 221
132 130 140 170 175 176 179 181 181 180 182 180 176 165 170 170 171 171 173 173 174 177 181 181 182 183 182 185 191 191 192 188 181 174 180 182 180 179 185 190 191 194 198 199 200 200 189 187 184 187 189 188 192 196 202 203 208 206 206 203 213 213 219
141 124 117 117 91 269 194 183 181 181 181 178 176 168 166 169 169 173 175 174 176 175 175 178 183 182 185 187 191 191 186 191 183 177 177 183 179 184 192 195 196 197 195 203 199 202 195 189 191 190 191 192 195 198 206 205 215 211 209 203 208 215 218
152 137 142 155 164 191 221 194 184 183 183 181 176 170 161 169 172 173 173 175 175 173 176 182 184 182 187 183 192 187 187 188 184 184 182 185 188 186 195 195 197 199 201 196 200 198 197 196 195 194 195 191 191 198 203 209 216 218 210 208 216 225 225
223 152 186 179 174 175 205 201 191 183 184 180 173 171 164 170 168 170 173 175 175 175 177 180 182 183 184 187 189 189 190 190 188 187 187 188 198 199 197 203 199 200 195 195 204 195 195 197 197 195 196 195 199 201 202 206 212 214 205 207 213 224 221
324 207 168 191 186 181 189 200 192 184 181 179 179 178 170 168 170 172 173 172 175 175 181 180 181 179 181 186 187 191 191 191 192 190 194 195 199 205 202 203 208 206 202 198 197 200 193 193 196 195 196 201 204 203 202 205 211 209 204 208 211 217 221
325 331 189 186 198 191 173 186 196 187 181 180 179 177 174 171 169 171 172 173 172 178 177 178 180 178 181 185 189 189 190 194 196 195 197 201 200 204 204 200 204 207 205 208 194 195 201 194 196 195 195 202 209 209 210 207 210 210 207 210 212 214 220
349 341 82 167 205 180 175 172 193 190 182 181 179 180 177 174 170 170 173 172 174 177 175 175 175 177 182 186 189 189 193 196 197 200 201 205 200 202 203 201 198 197 202 203 206 196 196 202 195 193 196 202 207 212 215 215 215 214 216 215 213 213 216
14 17 90 101 78 340 341 290 200 190 188 179 183 180 180 179 175 172 172 175 173 170 168 163 162 174 179 188 191 193 195 197 199 202 204 206 204 202 201 202 202 196 196 195 202 202 196 198 198 192 197 204 205 207 213 213 212 213 213 211 207 208 213
23 33 18 20 162 161 154 297 291 215 192 181 179 182 180 175 169 157 154 150 149 150 150 155 147 156 185 185 192 195 197 197 199 200 204 206 210 210 209 210 206 204 204 200 197 195 198 202 202 206 196 202 202 205 209 212 211 205 203 203 198 196 205
19 35 66 63 355 312 236 174 307 251 192 171 166 165 171 172 170 159 156 155 154 157 163 170 175 174 178 191 190 195 198 198 197 199 200 203 207 211 212 216 210 205 207 206 204 197 192 196 202 205 200 200 194 190 177 179 186 193 198 198 198 196 195
39 18 13 74 75 5 332 331 22 349 304 174 157 161 163 161 149 143 144 148 154 159 170 174 177 189 176 184 193 195 197 194 197 197 197 200 204 209 213 215 216 205 204 204 207 206 197 190 190 186 181 171 175 168 159 164 186 195 195 203 216 207 215
46 59 23 11 28 40 32 334 2 53 359 338 211 162 161 160 153 153 151 156 160 165 173 170 179 187 190 185 193 192 192 191 191 194 196 199 201 207 206 204 208 205 203 204 199 182 172 170 169 169 171 165 158 153 150 159 170 194 217 220 211 210 194
56 57 73 36 27 32 19 360 351 40 51 24 357 328 198 161 155 157 155 159 166 169 174 175 179 185 196 196 191 184 179 177 181 185 190 195 200 195 179 175 172 173 175 173 165 161 158 156 164 171 168 168 168 172 176 176 170 150 151 203 231 216 180
55 50 48 62 59 37 39 16 12 14 91 97 20 2 349 336 189 161 164 167 171 173 171 175 180 188 195 198 189 182 178 177 173 174 181 178 183 178 173 163 155 154 153 151 149 157 153 153 163 162 166 168 176 182 187 183 179 163 162 159 175 175 174
72 82 79 59 16 333 186 155 152 208 163 143 157 147 121 24 349 339 311 180 170 162 170 177 184 189 194 190 186 186 182 178 174 171 171 175 168 162 158 160 154 151 152 157 158 147 155 165 160 171 174 173 180 193 189 186 196 188 177 169 187 176 161
71 90 98 76 41 306 296 319 211 157 193 360 172 157 138 124 91 20 4 350 343 191 176 174 177 185 188 184 185 184 182 180 175 173 171 168 163 155 155 156 163 164 158 147 149 157 162 167 174 173 179 184 188 192 186 178 200 208 199 181 182 193 169
147 122 93 85 27 342 322 323 342 16 77 126 200 48 69 79 125 130 123 33 333 325 311 178 174 182 180 182 185 183 182 179 174 167 161 162 164 160 158 156 148 154 161 161 165 167 173 176 176 185 184 184 173 152 124 98 45 250 213 188 185 196 189
168 116 106 106 92 318 325 314 327 347 8 73 117 67 76 101 106 126 156 163 174 220 267 270 211 186 181 187 186 189 185 175 169 163 162 162 164 162 156 152 153 154 157 150 154 153 143 149 163 174 174 165 151 135 130 84 39 101 139 194 209 209 196
94 89 104 88 90 45 24 22 350 306 59 89 102 98 83 107 138 171 207 199 205 208 218 242 263 243 209 197 197 199 191 178 154 137 110 73 51 24 30 49 98 125 135 138 157 165 172 176 180 171 165 159 152 141 127 124 38 27 54 228 258 256 214
69 50 48 86 105 56 47 24 18 67 104 127 124 126 118 115 133 160 187 224 53 51 34 17 5 354 349 2 25 46 53 45 51 56 62 72 93 118 153 201 205 146 140 141 146 162 179 157 145 121 143 162 138 134 123 86 31 18 1 344 316 260 198
75 65 44 57 68 68 43 18 25 31 56 108 116 128 121 122 129 129 101 56 63 78 71 49 38 90 1 348 30 67 79 117 141 139 129 129 163 177 174 140 129 114 124 150 157 164 160 156 121 106 83 101 124 129 95 82 51 35 359 347 336 320 312
68 51 37 21 56 66 55 45 38 36 38 47 108 128 121 123 120 135 145 104 87 111 150 171 177 163 140 158 105 48 107 193 113 117 128 149 153 66 73 134 122 127 136 130 125 127 118 118 118 119 86 89 94 84 100 107 88 47 5 345 327 322 302
55 54 41 32 47 50 47 49 50 52 44 19 66 130 136 138 137 146 149 146 129 128 162 189 196 155 156 140 140 155 197 152 121 101 112 177 219 185 162 89 95 86 98 131 128 109 100 117 125 101 83 67 72 86 71 80 72 38 23 6 355 329 295
35 38 33 40 45 49 47 44 48 53 44 29 37 57 150 112 115 123 101 75 66 63 64 120 129 126 150 131 141 147 126 109 123 138 159 166 140 130 116 76 53 65 100 86 101 108 88 84 108 106 96 82 73 65 58 51 52 36 28 17 6 359 336
39 27 22 22 41 47 53 49 47 49 49 32 42 49 52 56 45 45 52 53 41 53 91 76 66 83 71 80 92 89 104 110 114 120 120 140 140 131 116 112 112 111 125 128 110 113 137 146 113 123 121 112 99 100 88 72 60 51 48 28 16 3 1
30 24 34 41 48 49 60 65 57 54 46 35 41 49 50 60 51 38 44 39 43 61 66 63 60 70 70 56 58 73 64 61 85 94 103 120 119 108 110 112 119 148 205 197 180 173 159 113 118 113 137 123 113 99 97 100 99 74 69 62 39 22 12
46 40 43 61 56 50 58 69 70 67 57 42 43 46 47 52 69 55 36 32 64 66 70 71 69 69 69 68 62 57 62 60 55 69 79 78 87 96 97 90 88 89 21 31 52 104 124 134 133 117 273 127 100 91 67 54 63 67 54 48 49 39 32
37 40 67 73 57 41 47 60 69 68 65 53 42 49 51 52 58 64 45 43 57 73 82 81 77 72 73 73 70 71 77 75 64 60 61 67 66 73 79 95 96 81 57 60 70 79 92 77 78 104 157 101 92 80 66 56 57 55 49 49 47 40 28
75 72 81 77 67 68 62 62 73 71 67 62 42 48 52 56 54 60 60 60 62 70 76 78 77 73 70 73 74 74 75 77 76 66 57 52 56 54 51 50 53 64 65 69 74 80 88 105 117 128 123 90 94 102 102 87 76 75 64 45 52 38 25
100 84 64 70 72 77 80 75 78 79 77 70 57 55 57 59 56 54 60 63 67 72 77 77 78 76 75 78 79 77 77 82 85 83 68 45 52 49 47 45 57 59 45 39 37 72 87 94 98 105 114 110 108 103 95 88 79 61 51 47 35 30 24
101 87 88 83 80 85 89 90 84 81 76 69 66 68 65 62 61 62 65 67 70 82 86 86 85 90 90 91 89 87 82 79 84 93 96 89 71 66 56 34 21 55 64 46 6 37 97 103 92 99 96 107 120 123 114 104 93 82 59 98 82 73 59
101 90 66 53 67 78 83 80 85 85 79 72 72 73 72 68 68 68 69 67 65 79 88 88 87 87 86 88 90 93 91 90 91 90 88 84 80 77 71 64 65 41 56 61 23 48 56 82 105 111 108 96 48 21 84 136 140 140 120 106 91 84 84
99 90 87 80 77 71 80 87 88 86 82 74 66 68 74 81 78 75 71 76 73 76 82 93 95 84 77 76 75 85 92 95 91 91 88 88 86 81 82 71 59 60 51 43 43 56 58 65 74 84 102 120 123 75 56 78 115 117 104 93 88 89 85
114 110 100 86 92 92 89 88 90 97 98 83 73 64 57 59 56 70 69 74 80 83 85 85 89 87 83 81 84 86 85 83 94 95 97 92 95 96 93 86 75 39 32 37 38 46 56 56 54 53 61 74 101 116 68 46 56 83 85 91 76 51 36